sat.trackr.live / text

‹ back to catalog

STARLINK-31264

NORAD 58845 · 2024-017V

PAYLOAD ACTIVE UNKNOWN

§ Identity

Operator
Country
US
Launch date
2024-01-24
Launch site
AFWTR
Launch vehicle
Mass (kg)
RCS (m²)

Purposes: comms

External: N2YO · Heavens-Above · Gunter

§ Orbital elements

Epoch: 2026-09-20T22:33:13.974912Z

Period
93.85 min
Inclination
53.1591°
Eccentricity
0.0001058
Mean motion
15.34392499 rev/d
Perigee alt
462.0 km
Apogee alt
463.4 km
Semi-major
6,840.9 km
B*
5.0106e-5
RAAN
105.3454°
Arg perigee
88.5933°
Mean anomaly
271.5191°
Rev number
14,869

§ Raw data

STARLINK-312641 58845U 24017V   26263.93974508  .00001317  00000+0  50106-4 0  99952 58845  53.1591 105.3454 0001058  88.5933 271.5191 15.34392499148691

JSON: /api/v1/satellites/58845 · /tle

For live sub-satellite position, see the globe view (requires WebGL).

§ Visibility from observer

Set your observer location to see the next 7 days of passes ≥ 10°. The values pass through the URL so the page stays shareable.

No JS? Fill the form by hand. The geolocation button needs JavaScript.